GFSFLT1_850_dewp_150.txt.gz
Dewpoint
-3 -5 -5 -5 -6 -6 -6 -7 -9 -10 -10 -10 -10 -10 -9 -9 -8 -6 -6 -6 -5 -5 -5 -5 -5 -5 -5 -5 -5 -4 -4 -5
-3 -5 -6 -5 -5 -5 -6 -7 -9 -9 -10 -10 -10 -9 -9 -11 -11 -15 -15 -6 -6 -6 -6 -6 -5 -5 -5 -4 -4 -4 -5 -4
-3 -4 -4 -4 -5 -5 -6 -7 -8 -8 -8 -8 -9 -9 -10 -15 -17 -21 -19 -10 -5 -6 -6 -6 -6 -6 -6 -5 -5 -5 -4 -3
-3 -4 -4 -5 -5 -5 -5 -6 -7 -7 -8 -7 -10 -13 -16 -18 -22 -21 -15 -5 -5 -7 -7 -7 -7 -7 -6 -6 -5 -5 -5 -3
-3 -4 -4 -4 -5 -4 -4 -5 -6 -7 -8 -7 -8 -20 -24 -24 -24 -18 -10 -4 -5 -7 -8 -8 -8 -7 -6 -6 -6 -5 -5 -4
-3 -3 -4 -4 -4 -4 -4 -5 -6 -7 -8 -7 -13 -28 -28 -26 -21 -17 -8 -5 -6 -7 -7 -8 -7 -7 -7 -6 -6 -5 -5 -5
-3 -3 -4 -4 -4 -4 -4 -5 -6 -8 -8 -8 -20 -29 -29 -31 -26 -17 -8 -5 -5 -6 -7 -7 -7 -7 -7 -7 -6 -5 -5 -4
-3 -4 -3 -4 -4 -3 -4 -5 -7 -8 -8 -10 -26 -30 -32 -31 -24 -15 -8 -5 -5 -6 -6 -7 -7 -7 -7 -6 -6 -5 -4 -4
-4 -4 -4 -4 -4 -3 -5 -6 -7 -8 -8 -16 -30 -32 -34 -33 -26 -18 -10 -6 -6 -5 -6 -6 -7 -7 -7 -6 -6 -5 -4 -3
-4 -4 -3 -4 -4 -4 -6 -6 -8 -9 -10 -27 -32 -33 -35 -34 -29 -29 -20 -12 -6 -6 -5 -6 -7 -7 -7 -6 -6 -5 -5 -4
-4 -3 -4 -4 -4 -5 -6 -6 -10 -10 -19 -32 -33 -34 -35 -32 -31 -33 -32 -26 -12 -7 -6 -6 -6 -7 -7 -7 -6 -6 -6 -5
-3 -3 -4 -3 -4 -5 -6 -8 -10 -12 -25 -33 -34 -36 -36 -33 -33 -35 -33 -33 -24 -11 -10 -9 -7 -6 -6 -6 -6 -6 -6 -6
-3 -3 -3 -4 -4 -5 -5 -7 -10 -17 -30 -34 -35 -37 -36 -35 -35 -36 -36 -35 -31 -25 -26 -31 -32 -22 -7 -6 -6 -7 -7 -7
-2 -3 -3 -4 -4 -4 -5 -9 -13 -26 -33 -35 -36 -37 -36 -35 -36 -36 -37 -35 -32 -29 -29 -35 -34 -35 -33 -15 -7 -6 -7 -7
-2 -3 -3 -3 -3 -3 -7 -13 -19 -31 -35 -36 -37 -37 -35 -34 -35 -37 -38 -38 -32 -30 -29 -31 -36 -36 -35 -33 -30 -20 -17 -14
-3 -3 -3 -3 -2 -6 -10 -17 -28 -34 -35 -36 -36 -36 -34 -31 -33 -37 -38 -38 -35 -31 -29 -27 -32 -38 -37 -35 -35 -32 -27 -25
-3 -3 -2 -2 -5 -6 -9 -17 -21 -32 -35 -36 -36 -36 -33 -30 -35 -38 -38 -38 -38 -35 -31 -29 -31 -35 -37 -35 -36 -37 -34 -31
-2 -1 -1 -3 -4 -5 -10 -15 -22 -33 -34 -35 -35 -35 -31 -30 -35 -38 -38 -38 -38 -37 -36 -33 -32 -33 -37 -37 -34 -35 -36 -35
-3 -2 -2 -3 -4 -6 -10 -15 -25 -29 -31 -33 -34 -33 -30 -28 -31 -33 -33 -34 -36 -37 -34 -34 -35 -31 -31 -33 -33 -34 -34 -34

GFSFLT1_850_dewp_153.txt.gz
Dewpoint
-3 -4 -5 -5 -6 -6 -7 -7 -8 -9 -9 -9 -10 -10 -10 -10 -12 -13 -20 -19 -18 -13 -10 -8 -7 -6 -6 -6 -5 -5 -5 -5
-3 -4 -4 -5 -6 -6 -6 -7 -8 -9 -9 -9 -10 -10 -11 -12 -15 -17 -22 -19 -17 -10 -5 -5 -6 -6 -7 -6 -6 -5 -5 -5
-3 -3 -4 -4 -5 -6 -7 -7 -7 -8 -9 -10 -9 -9 -13 -18 -18 -24 -25 -21 -15 -6 -5 -6 -6 -7 -7 -6 -6 -5 -5 -4
-3 -3 -3 -4 -5 -6 -7 -7 -7 -7 -8 -8 -8 -11 -17 -22 -22 -26 -29 -23 -11 -4 -5 -6 -6 -7 -6 -7 -6 -6 -5 -5
-3 -3 -3 -4 -5 -6 -7 -7 -6 -7 -8 -8 -9 -10 -26 -26 -26 -30 -29 -20 -10 -4 -5 -6 -7 -7 -7 -6 -6 -6 -6 -5
-3 -3 -3 -4 -5 -6 -7 -7 -7 -7 -8 -8 -8 -15 -29 -24 -30 -32 -30 -20 -10 -4 -5 -6 -7 -7 -6 -6 -6 -6 -5 -5
-3 -3 -3 -4 -5 -7 -7 -7 -7 -7 -8 -8 -9 -23 -28 -28 -33 -33 -31 -21 -11 -5 -5 -6 -7 -7 -7 -6 -6 -6 -5 -5
-2 -3 -3 -4 -6 -7 -7 -6 -7 -7 -8 -8 -12 -30 -32 -33 -34 -35 -33 -27 -14 -8 -5 -6 -6 -7 -7 -6 -6 -5 -5 -5
-3 -3 -3 -4 -6 -6 -6 -6 -6 -7 -8 -9 -18 -32 -33 -34 -34 -34 -32 -32 -19 -9 -6 -5 -5 -6 -6 -6 -6 -6 -5 -5
-3 -3 -4 -4 -6 -5 -5 -6 -6 -8 -9 -11 -25 -32 -34 -34 -34 -35 -34 -36 -25 -14 -10 -7 -5 -5 -6 -6 -6 -6 -6 -6
-3 -3 -4 -4 -4 -4 -4 -6 -6 -9 -10 -16 -27 -33 -35 -34 -34 -37 -37 -37 -31 -30 -30 -27 -15 -6 -5 -6 -6 -6 -7 -7
-3 -4 -3 -4 -4 -4 -4 -6 -6 -10 -12 -19 -29 -34 -36 -35 -36 -37 -37 -37 -35 -34 -35 -36 -37 -26 -8 -6 -6 -6 -6 -7
-4 -3 -3 -3 -4 -4 -5 -5 -7 -10 -14 -20 -28 -35 -36 -36 -37 -37 -37 -37 -35 -34 -36 -38 -38 -37 -27 -13 -8 -7 -6 -6
-3 -3 -3 -3 -4 -4 -4 -4 -7 -11 -16 -23 -32 -36 -36 -36 -37 -37 -37 -36 -34 -32 -34 -39 -38 -38 -34 -31 -27 -22 -16 -9
-3 -3 -3 -3 -4 -4 -4 -5 -8 -12 -20 -31 -35 -37 -37 -36 -36 -37 -37 -35 -32 -31 -32 -37 -38 -37 -34 -32 -31 -27 -25 -24
-3 -3 -3 -3 -3 -4 -4 -5 -10 -17 -28 -34 -36 -36 -36 -33 -35 -37 -37 -36 -33 -30 -30 -34 -37 -37 -33 -31 -32 -32 -28 -28
-3 -2 -3 -3 -4 -4 -3 -7 -12 -22 -32 -35 -36 -36 -35 -32 -36 -37 -38 -37 -35 -30 -32 -34 -37 -37 -34 -30 -31 -33 -32 -31
-4 -3 -3 -3 -3 -3 -4 -7 -13 -20 -28 -35 -35 -36 -34 -32 -36 -37 -38 -38 -36 -33 -34 -35 -37 -35 -34 -30 -28 -31 -34 -32
-4 -3 -3 -3 -3 -3 -5 -8 -14 -20 -29 -33 -35 -35 -31 -30 -33 -33 -33 -34 -36 -33 -32 -33 -35 -33 -31 -28 -26 -28 -29 -31

GFSFLT1_850_dewp_156.txt.gz
Dewpoint
-2 -3 -4 -5 -6 -6 -7 -8 -8 -9 -9 -9 -10 -10 -11 -12 -12 -13 -17 -22 -22 -23 -23 -14 -10 -6 -5 -5 -5 -5 -5 -5
-3 -3 -4 -5 -6 -6 -7 -7 -8 -8 -9 -9 -10 -11 -12 -13 -17 -19 -22 -26 -28 -27 -17 -10 -6 -5 -5 -5 -5 -5 -5 -4
-3 -3 -4 -4 -6 -6 -7 -7 -8 -8 -8 -9 -10 -11 -12 -17 -22 -21 -26 -30 -27 -20 -14 -6 -4 -4 -5 -5 -5 -5 -5 -5
-3 -3 -4 -4 -5 -7 -7 -8 -8 -8 -8 -9 -10 -11 -13 -24 -19 -22 -30 -31 -30 -24 -11 -4 -4 -5 -5 -5 -5 -6 -5 -5
-3 -3 -3 -4 -5 -6 -7 -8 -8 -9 -8 -9 -9 -9 -14 -23 -19 -27 -32 -33 -31 -23 -6 -4 -4 -5 -5 -6 -6 -5 -6 -6
-3 -3 -4 -4 -5 -6 -7 -8 -8 -8 -8 -9 -10 -9 -17 -27 -28 -32 -34 -35 -33 -24 -9 -5 -4 -5 -6 -6 -5 -5 -5 -6
-3 -3 -3 -3 -4 -5 -7 -7 -7 -8 -8 -9 -9 -9 -23 -31 -32 -33 -34 -36 -35 -26 -16 -8 -4 -5 -5 -6 -6 -6 -5 -5
-3 -3 -2 -3 -4 -5 -6 -6 -7 -7 -8 -8 -9 -12 -29 -32 -33 -34 -35 -36 -35 -31 -22 -12 -5 -4 -5 -6 -6 -6 -6 -6
-3 -3 -3 -3 -4 -5 -5 -6 -6 -7 -7 -8 -9 -16 -29 -32 -33 -35 -36 -37 -34 -33 -32 -25 -15 -6 -6 -5 -6 -6 -6 -6
-2 -2 -3 -3 -4 -5 -5 -5 -6 -6 -7 -8 -11 -20 -29 -33 -34 -35 -36 -36 -35 -36 -36 -37 -36 -21 -11 -6 -6 -6 -6 -7
-2 -3 -3 -3 -4 -4 -4 -4 -5 -6 -7 -9 -15 -24 -31 -34 -34 -35 -36 -36 -35 -36 -38 -39 -38 -34 -22 -12 -10 -7 -6 -7
-2 -2 -3 -3 -4 -4 -4 -4 -5 -6 -7 -11 -18 -24 -33 -34 -35 -36 -36 -36 -34 -35 -38 -39 -39 -38 -35 -27 -24 -13 -7 -7
-3 -3 -3 -3 -3 -4 -4 -4 -5 -5 -8 -13 -18 -24 -33 -35 -36 -36 -36 -35 -33 -32 -37 -38 -38 -38 -37 -34 -30 -28 -24 -13
-3 -3 -3 -3 -3 -3 -4 -4 -5 -5 -9 -13 -19 -28 -35 -36 -36 -36 -36 -33 -31 -29 -34 -38 -38 -37 -36 -35 -31 -29 -27 -23
-3 -3 -3 -3 -3 -3 -4 -4 -5 -6 -10 -15 -23 -33 -36 -36 -36 -37 -35 -32 -30 -29 -31 -37 -37 -37 -36 -35 -33 -31 -30 -29
-3 -3 -3 -3 -3 -3 -4 -5 -5 -6 -11 -17 -29 -35 -36 -35 -35 -36 -35 -33 -30 -28 -31 -36 -36 -36 -35 -34 -34 -33 -33 -32
-3 -3 -3 -3 -3 -4 -4 -4 -5 -7 -13 -23 -32 -36 -36 -34 -35 -36 -36 -34 -32 -29 -32 -36 -36 -35 -35 -31 -32 -35 -34 -34
-5 -4 -4 -3 -3 -3 -4 -4 -4 -8 -15 -24 -33 -35 -35 -33 -35 -36 -37 -37 -32 -32 -34 -35 -36 -34 -32 -31 -29 -31 -34 -34
-4 -4 -4 -3 -3 -3 -4 -4 -5 -10 -16 -21 -33 -35 -33 -31 -33 -35 -35 -35 -33 -30 -30 -31 -32 -30 -29 -28 -27 -28 -31 -33

GFSFLT1_850_dewp_162.txt.gz
Dewpoint
1 1 -0 -2 -3 -6 -7 -8 -9 -10 -11 -10 -10 -10 -11 -14 -14 -15 -14 -16 -25 -30 -31 -29 -25 -19 -8 -5 -4 -4 -3 -2
1 1 0 -1 -3 -6 -7 -8 -9 -10 -10 -10 -10 -10 -11 -14 -14 -15 -14 -23 -30 -31 -31 -29 -23 -8 -5 -5 -4 -3 -3 -3
1 1 1 -1 -4 -6 -7 -8 -9 -9 -9 -9 -9 -10 -12 -13 -17 -16 -20 -29 -31 -32 -31 -29 -14 -6 -6 -6 -4 -4 -4 -4
1 1 1 -0 -2 -5 -6 -7 -8 -9 -9 -9 -10 -11 -12 -13 -19 -21 -25 -30 -32 -32 -30 -28 -17 -6 -8 -10 -5 -4 -4 -4
1 1 0 -0 -1 -4 -5 -7 -8 -9 -9 -9 -10 -8 -9 -14 -24 -26 -29 -31 -32 -32 -32 -31 -27 -16 -15 -11 -7 -8 -5 -5
1 1 0 -0 -0 -2 -5 -7 -8 -9 -9 -9 -10 -10 -11 -15 -26 -29 -31 -32 -32 -33 -34 -34 -33 -26 -21 -14 -14 -12 -5 -5
1 1 0 -0 -0 -2 -5 -7 -8 -9 -9 -9 -10 -10 -12 -17 -26 -20 -30 -30 -32 -34 -34 -34 -33 -29 -23 -20 -21 -12 -8 -6
1 0 -0 -1 -0 -1 -5 -7 -8 -8 -9 -9 -9 -10 -13 -19 -24 -27 -31 -31 -32 -33 -34 -35 -35 -31 -28 -26 -20 -10 -11 -9
0 0 -0 -1 -1 -3 -6 -7 -7 -7 -8 -8 -9 -10 -14 -19 -23 -27 -31 -32 -32 -34 -35 -36 -36 -34 -32 -29 -15 -16 -14 -11
-0 0 -0 -1 -2 -4 -6 -6 -6 -7 -7 -7 -9 -11 -16 -18 -20 -24 -31 -32 -33 -34 -35 -36 -35 -35 -35 -33 -22 -28 -15 -11
-0 0 0 -1 -3 -4 -5 -6 -6 -6 -6 -7 -9 -12 -14 -16 -17 -26 -32 -32 -33 -34 -35 -35 -35 -35 -34 -33 -28 -31 -26 -12
-0 -0 0 -0 -1 -3 -4 -5 -6 -6 -6 -7 -9 -11 -13 -13 -19 -27 -32 -33 -33 -33 -35 -35 -35 -34 -34 -33 -33 -33 -31 -24
-0 0 0 -1 -2 -3 -5 -6 -6 -6 -6 -6 -9 -11 -12 -16 -22 -29 -33 -33 -32 -32 -34 -35 -34 -34 -34 -34 -34 -34 -33 -33
0 1 0 -1 -2 -3 -5 -6 -6 -5 -6 -6 -9 -10 -13 -17 -23 -31 -33 -32 -31 -30 -32 -34 -34 -34 -34 -34 -34 -34 -33 -33
0 1 0 -1 -2 -3 -4 -5 -4 -5 -5 -7 -8 -11 -13 -17 -26 -33 -33 -32 -30 -29 -32 -34 -34 -34 -34 -34 -34 -34 -34 -33
0 0 -0 -1 -2 -3 -3 -3 -4 -4 -5 -7 -9 -11 -14 -20 -30 -34 -33 -31 -28 -28 -31 -30 -32 -34 -34 -32 -34 -34 -34 -33
-1 -0 -1 -1 -2 -2 -2 -3 -4 -4 -6 -7 -8 -12 -17 -22 -32 -34 -33 -30 -30 -31 -33 -33 -33 -33 -33 -32 -32 -34 -35 -35
-1 -2 -2 -2 -2 -2 -2 -3 -4 -4 -6 -7 -9 -14 -20 -25 -33 -34 -32 -32 -31 -32 -33 -32 -32 -32 -32 -31 -31 -33 -34 -35
-2 -2 -2 -2 -2 -2 -3 -3 -4 -5 -5 -7 -9 -15 -21 -27 -33 -34 -33 -33 -31 -31 -30 -29 -30 -31 -31 -30 -31 -32 -33 -34

GFSFLT1_850_dewp_168.txt.gz
Dewpoint
9 10 9 6 5 4 4 2 0 -1 -5 -8 -10 -11 -11 -13 -16 -17 -15 -14 -15 -20 -23 -27 -28 -28 -25 -23 -24 -21 -12 -17
9 10 7 6 4 3 3 2 2 -2 -7 -9 -10 -10 -11 -13 -16 -15 -15 -14 -16 -21 -26 -28 -28 -27 -25 -25 -26 -21 -10 -13
8 9 7 4 3 2 2 2 1 -4 -8 -7 -7 -9 -11 -14 -16 -15 -15 -15 -18 -21 -26 -28 -29 -26 -25 -25 -21 -21 -13 -14
7 7 6 3 2 2 1 2 -1 -3 -5 -2 -2 -7 -11 -14 -14 -14 -16 -18 -19 -22 -26 -29 -29 -27 -24 -21 -22 -21 -18 -14
5 6 5 2 1 2 1 2 -1 -2 -1 -3 -5 -11 -13 -10 -11 -13 -17 -19 -21 -25 -27 -29 -29 -28 -24 -23 -22 -14 -14 -17
4 5 4 2 1 2 1 1 -0 -1 -1 -7 -10 -6 -5 -7 -11 -14 -16 -20 -22 -24 -27 -29 -29 -28 -26 -22 -18 -10 -14 -20
3 5 4 2 2 2 1 1 0 -1 -4 -6 -7 -5 -6 -8 -12 -14 -15 -16 -18 -22 -27 -29 -29 -29 -26 -23 -13 -12 -15 -17
3 4 3 3 2 2 1 1 0 -1 -3 -4 -4 -6 -10 -11 -12 -12 -12 -12 -13 -20 -28 -30 -30 -30 -28 -23 -10 -16 -11 -14
3 3 3 3 2 2 1 0 -0 -2 -2 -4 -5 -8 -10 -10 -10 -10 -11 -9 -15 -24 -29 -30 -30 -29 -28 -21 -12 -19 -16 -12
2 3 3 3 2 2 1 0 -1 -1 -2 -4 -7 -9 -9 -9 -10 -11 -12 -13 -20 -27 -30 -30 -30 -29 -28 -17 -17 -26 -19 -18
2 3 3 2 2 2 1 -0 -1 -2 -2 -5 -8 -8 -8 -9 -10 -8 -9 -15 -23 -28 -29 -31 -30 -30 -29 -23 -25 -28 -26 -25
2 3 2 2 2 2 1 -0 -1 -2 -3 -7 -8 -8 -8 -8 -5 -5 -10 -20 -25 -28 -30 -31 -31 -30 -29 -29 -29 -30 -29 -29
1 2 3 2 2 2 1 -0 -1 -2 -4 -7 -8 -7 -7 -5 -1 -7 -15 -20 -25 -28 -30 -30 -30 -29 -29 -30 -30 -30 -31 -31
1 2 2 2 2 2 0 -1 -1 -2 -4 -7 -7 -5 -2 -1 -3 -11 -16 -20 -27 -29 -30 -30 -30 -29 -30 -29 -28 -30 -31 -31
1 2 2 2 1 1 1 -1 -2 -3 -5 -7 -5 2 2 -1 -8 -12 -18 -24 -28 -28 -28 -30 -30 -30 -29 -28 -27 -27 -28 -28
0 2 2 2 1 1 1 -0 -1 -3 -5 -6 -2 2 0 -7 -10 -14 -20 -24 -23 -20 -20 -20 -25 -29 -30 -28 -28 -27 -26 -23
0 2 2 2 2 1 1 1 -1 -2 -4 -5 -2 -2 -7 -9 -12 -15 -18 -20 -17 -13 -12 -18 -23 -29 -32 -32 -29 -30 -28 -26
-0 1 2 2 2 1 1 0 -1 -3 -5 -2 -4 -7 -9 -10 -13 -15 -18 -21 -20 -21 -23 -25 -28 -30 -32 -32 -31 -30 -32 -32
-1 1 2 2 2 1 0 -0 -1 -3 -5 -6 -7 -8 -9 -10 -12 -13 -18 -22 -27 -29 -28 -29 -29 -29 -32 -32 -31 -28 -30 -32

GFSFLT1_850_dewp_171.txt.gz
Dewpoint
10 10 10 11 10 9 8 7 6 3 1 -2 -6 -9 -11 -13 -14 -17 -15 -15 -16 -18 -20 -23 -25 -26 -27 -28 -29 -29 -30 -30
10 10 11 11 9 8 7 6 5 3 1 -3 -6 -9 -11 -12 -14 -16 -15 -15 -17 -19 -20 -22 -23 -25 -27 -28 -29 -29 -30 -30
10 10 11 10 8 7 6 5 4 3 -0 -3 -7 -10 -10 -11 -15 -15 -15 -15 -17 -19 -19 -20 -23 -27 -28 -28 -29 -29 -29 -29
10 10 10 9 7 6 6 5 3 2 0 -3 -6 -7 -9 -11 -14 -15 -16 -17 -18 -19 -19 -22 -25 -28 -28 -28 -29 -29 -27 -27
9 9 9 8 6 6 5 4 3 1 -1 -4 -5 -7 -10 -12 -14 -14 -17 -19 -19 -19 -20 -23 -25 -28 -28 -28 -28 -28 -26 -27
9 9 9 8 6 5 4 3 2 -0 -3 -2 -2 -5 -8 -12 -11 -12 -17 -19 -20 -20 -20 -23 -26 -28 -28 -28 -27 -27 -26 -25
5 9 8 6 4 3 3 2 1 -1 -1 -1 -1 -4 -9 -9 -10 -14 -16 -17 -17 -18 -20 -23 -26 -28 -28 -28 -26 -26 -27 -24
6 7 5 4 3 2 2 2 1 -2 0 -1 -2 -6 -7 -7 -12 -14 -13 -13 -14 -16 -21 -23 -28 -29 -28 -27 -24 -25 -26 -25
5 6 4 4 3 2 2 1 1 -1 -0 -1 -5 -3 -5 -7 -12 -12 -11 -12 -12 -17 -22 -25 -28 -29 -28 -26 -24 -26 -26 -25
5 5 3 3 2 2 1 1 1 -0 -1 -3 -2 -3 -6 -10 -11 -10 -11 -11 -13 -19 -23 -26 -29 -28 -28 -27 -25 -28 -25 -25
5 4 3 3 2 2 1 1 1 0 -2 -2 -2 -4 -8 -9 -9 -10 -10 -10 -15 -19 -23 -27 -29 -29 -28 -27 -27 -28 -25 -25
4 3 3 3 3 2 1 1 0 -0 -2 -2 -3 -5 -8 -9 -10 -8 -8 -11 -14 -18 -24 -28 -29 -28 -28 -28 -28 -28 -27 -27
3 3 3 3 2 2 1 1 0 -1 -2 -2 -3 -7 -8 -9 -8 -5 -7 -11 -10 -19 -26 -28 -29 -28 -28 -29 -28 -28 -28 -28
4 4 3 3 2 2 1 0 -0 -1 -1 -3 -5 -7 -8 -8 -4 -2 -3 -6 -13 -22 -27 -28 -29 -28 -28 -28 -27 -27 -28 -29
3 3 3 3 2 2 1 0 -0 -1 -2 -4 -6 -6 -8 -6 0 1 -7 -10 -15 -24 -27 -29 -29 -28 -28 -26 -24 -24 -26 -28
2 3 3 2 2 2 1 0 -1 -1 -2 -5 -5 -8 -5 3 3 -5 -12 -11 -17 -24 -27 -29 -29 -28 -27 -25 -24 -24 -25 -26
1 1 2 2 2 2 1 0 -1 -1 -2 -5 -4 -6 3 3 -2 -12 -9 -11 -18 -21 -25 -26 -22 -26 -28 -28 -26 -26 -26 -27
1 1 2 2 2 2 1 0 -0 -0 -0 -3 -5 -1 1 1 -7 -1 -10 -13 -16 -20 -24 -22 -19 -27 -31 -32 -30 -27 -29 -30
-0 1 2 2 2 2 1 0 -0 0 1 -1 -4 -2 1 -5 -7 -3 -13 -14 -17 -22 -22 -18 -22 -28 -32 -32 -31 -28 -30 -31